sat.trackr.live / text

‹ back to catalog

STARLINK-32660

NORAD 62205 · 2024-229P

PAYLOAD ACTIVE UNKNOWN

§ Identity

Operator
Country
US
Launch date
2024-12-04
Launch site
AFETR
Launch vehicle
Mass (kg)
RCS (m²)

Purposes: comms

External: N2YO · Heavens-Above · Gunter

§ Orbital elements

Epoch: 2026-09-21T21:43:12.089856Z

Period
94.27 min
Inclination
43.0005°
Eccentricity
0.0001352
Mean motion
15.27584458 rev/d
Perigee alt
482.1 km
Apogee alt
484.0 km
Semi-major
6,861.2 km
B*
5.3673e-4
RAAN
228.4049°
Arg perigee
270.7354°
Mean anomaly
89.3342°
Rev number
10,073

§ Raw data

STARLINK-326601 62205U 24229P   26264.90500104  .00014539  00000+0  53673-3 0  99912 62205  43.0005 228.4049 0001352 270.7354  89.3342 15.27584458100736

JSON: /api/v1/satellites/62205 · /tle

For live sub-satellite position, see the globe view (requires WebGL).

§ Visibility from observer

Set your observer location to see the next 7 days of passes ≥ 10°. The values pass through the URL so the page stays shareable.

No JS? Fill the form by hand. The geolocation button needs JavaScript.